Weather History for Erie, CO

Change the Weather History Date:

Tuesday, January 22, 2013

  Actual Average (KBJC) Record (KBJC)
Temperature  
Mean Temperature 40 °F -  
Max Temperature 63 °F 44 °F 66 °F (2009)
Min Temperature 16 °F 25 °F 1 °F (2008)
Degree Days  
Heating Degree Days 26    
Moisture  
Dew Point 3 °F    
Average Humidity 30    
Maximum Humidity 79    
Minimum Humidity 5    
Precipitation  
Precipitation 0.00 in - - ()
Sea Level Pressure  
Sea Level Pressure 30.08 in    
Wind  
Wind Speed 3 mph (SSW)    
Max Wind Speed 13 mph    
Max Gust Speed 18 mph    
Visibility 10 miles    
Events      
Averages and records for this station are not official NWS values.
T = Trace of Precipitation, MM = Missing Value Source: NWS Daily Summary

Daily Weather History Graph

Daily Weather History Graph

Search for Another Location

Airport:

Trip Planner

Search our weather history database for the weather conditions in past years. The results will help you decide how hot, cold, wet, or windy it might be!

Date:

Astronomy

Jan. 22, 2013 Rise Set
Actual Time 7:16 AM MST 5:07 PM MST
Civil Twilight 6:47 AM MST 5:37 PM MST
Nautical Twilight 6:14 AM MST 6:10 PM MST
Astronomical Twilight 5:42 AM MST 6:42 PM MST
Moon 1:32 PM MST (1/22) 3:40 AM MST (1/22)
Length of Visible Light 10h 49m
Length of Day
9h 51m
Waxing Gibbous, 83% of the Moon is Illuminated
Jan 22
Waxing Gibbous
Jan 26
Full
Feb 3
Last Quarter
Feb 10
New
Feb 17
First Quarter

Hourly Weather History & Observations

Time (MST) Temp. Windchill Dew Point Humidity Pressure Visibility Wind Dir Wind Speed Gust Speed Precip Events Conditions
12:16 AM 41.5 °F - -5.3 °F 14% 30.04 in 10.0 mi Calm Calm - N/A   Clear
12:36 AM 39.6 °F 35.4 °F -4.7 °F 15% 30.03 in 10.0 mi SSW 5.8 mph - N/A   Clear
12:56 AM 33.3 °F - -4.0 °F 20% 30.03 in 10.0 mi Calm Calm - N/A   Clear
1:16 AM 31.6 °F - 1.0 °F 27% 30.03 in 10.0 mi Calm Calm - N/A   Clear
1:36 AM 34.9 °F 32.0 °F -2.4 °F 20% 30.03 in 10.0 mi SSW 3.5 mph - N/A   Clear
1:56 AM 31.3 °F 27.9 °F -0.2 °F 26% 30.03 in 10.0 mi South 3.5 mph - N/A   Clear
2:16 AM 31.6 °F - -0.0 °F 26% 30.02 in 10.0 mi Calm Calm - N/A   Clear
2:36 AM 32.7 °F - -2.4 °F 22% 30.01 in 10.0 mi Calm Calm - N/A   Clear
2:56 AM 51.1 °F - -9.4 °F 8% 30.01 in 10.0 mi NW 11.5 mph - N/A   Clear
3:16 AM 45.5 °F 41.3 °F -8.9 °F 10% 30.00 in 10.0 mi WNW 8.1 mph - N/A   Clear
3:36 AM 42.3 °F - -9.2 °F 11% 30.00 in 10.0 mi Calm Calm - N/A   Clear
3:56 AM 38.8 °F - -9.0 °F 13% 30.00 in 10.0 mi Calm Calm - N/A   Clear
4:16 AM 36.5 °F 33.9 °F -7.6 °F 15% 30.00 in 10.0 mi WSW 3.5 mph - N/A   Clear
4:36 AM 35.6 °F 32.8 °F -7.4 °F 16% 30.00 in 10.0 mi SE 3.5 mph - N/A   Clear
4:56 AM 39.7 °F 36.5 °F -8.3 °F 13% 30.01 in 10.0 mi NW 4.6 mph 16.1 mph N/A   Clear
5:16 AM 39.4 °F 34.5 °F -8.9 °F 13% 30.02 in 10.0 mi NW 6.9 mph - N/A   Clear
5:36 AM 30.7 °F 20.9 °F 11.3 °F 44% 30.04 in 10.0 mi North 12.7 mph 18.4 mph N/A   Clear
5:56 AM 21.6 °F 13.0 °F 12.6 °F 68% 30.05 in 10.0 mi NNE 6.9 mph - N/A   Clear
6:16 AM 22.3 °F - 13.5 °F 69% 30.06 in 10.0 mi Calm Calm - N/A   Clear
6:36 AM 23.5 °F - 14.9 °F 70% 30.08 in 10.0 mi Calm Calm - N/A   Clear
6:56 AM 19.6 °F 14.5 °F 12.2 °F 73% 30.09 in 10.0 mi SW 3.5 mph - N/A   Clear
7:16 AM 18.3 °F - 11.5 °F 75% 30.09 in 10.0 mi Calm Calm - N/A   Clear
7:36 AM 16.0 °F 10.4 °F 10.6 °F 79% 30.09 in 7.0 mi SSW 3.5 mph - N/A   Clear
7:56 AM 17.8 °F - 11.3 °F 76% 30.09 in 10.0 mi Calm Calm - N/A   Clear
8:16 AM 22.5 °F - 13.3 °F 68% 30.09 in 10.0 mi Calm Calm - N/A   Clear
8:36 AM 28.6 °F - 13.8 °F 54% 30.10 in 10.0 mi Calm Calm - N/A   Clear
8:56 AM 32.0 °F - 12.4 °F 44% 30.09 in 10.0 mi Calm Calm - N/A   Clear
9:16 AM 35.6 °F - 12.6 °F 39% 30.09 in 10.0 mi Calm Calm - N/A   Clear
9:36 AM 38.7 °F - 10.9 °F 32% 30.10 in 10.0 mi Calm Calm - N/A   Clear
9:56 AM 45.7 °F - 10.9 °F 24% 30.09 in 10.0 mi Calm Calm - N/A   Clear
10:16 AM 52.2 °F - 2.8 °F 13% 30.09 in 10.0 mi SSE 3.5 mph - N/A   Clear
10:23 AM 53.8 °F - 2.8 °F 13% 30.09 in 10.0 mi SE 3.5 mph - N/A   Clear
11:36 AM 61.9 °F - -9.6 °F 5% 30.08 in 10.0 mi Calm Calm - N/A   Clear
11:56 AM 62.2 °F - 0.5 °F 8% 30.08 in 10.0 mi East 5.8 mph - N/A   Clear
12:16 PM 61.7 °F - -1.8 °F 8% 30.07 in 10.0 mi East 3.5 mph - N/A   Clear
12:36 PM 59.2 °F - 10.4 °F 15% 30.07 in 10.0 mi North 11.5 mph - N/A   Clear
12:56 PM 59.0 °F - 8.8 °F 14% 30.07 in 10.0 mi North 8.1 mph - N/A   Clear
1:16 PM 58.5 °F - 6.8 °F 13% 30.07 in 10.0 mi NNW 3.5 mph - N/A   Clear
1:36 PM 59.2 °F - 6.6 °F 12% 30.05 in 10.0 mi Calm Calm - N/A   Clear
1:56 PM 61.5 °F - 3.4 °F 10% 30.04 in 10.0 mi Calm Calm - N/A   Clear
2:16 PM 61.3 °F - 5.7 °F 11% 30.03 in 10.0 mi NNE 5.8 mph - N/A   Clear
2:36 PM 63.0 °F - 1.6 °F 9% 30.04 in 10.0 mi NNE 6.9 mph - N/A   Clear
2:56 PM 63.3 °F - -1.7 °F 7% 30.05 in 10.0 mi ENE 4.6 mph - N/A   Clear
3:16 PM 63.5 °F - -1.8 °F 7% 30.05 in 10.0 mi NE 8.1 mph - N/A   Clear
3:36 PM 61.9 °F - 0.3 °F 8% 30.06 in 10.0 mi ENE 8.1 mph - N/A   Clear
3:56 PM 60.4 °F - 1.2 °F 9% 30.07 in 10.0 mi NE 4.6 mph - N/A   Clear
4:16 PM 58.1 °F - 1.2 °F 10% 30.07 in 10.0 mi NE 3.5 mph - N/A   Clear
4:36 PM 55.6 °F - 1.4 °F 11% 30.08 in 10.0 mi Calm Calm - N/A   Clear
4:56 PM 52.7 °F - 2.1 °F 13% 30.08 in 10.0 mi Calm Calm - N/A   Clear
5:16 PM 44.6 °F - 2.1 °F 17% 30.08 in 10.0 mi Calm Calm - N/A   Clear
5:36 PM 39.2 °F - 2.8 °F 22% 30.09 in 10.0 mi Calm Calm - N/A   Clear
5:56 PM 40.8 °F 38.8 °F 3.2 °F 21% 30.11 in 10.0 mi South 3.5 mph - N/A   Clear
6:16 PM 39.0 °F - 3.6 °F 23% 30.11 in 10.0 mi Calm Calm - N/A   Clear
6:36 PM 33.6 °F - 4.5 °F 29% 30.11 in 10.0 mi Calm Calm - N/A   Clear
6:56 PM 29.8 °F - 3.6 °F 33% 30.12 in 10.0 mi Calm Calm - N/A   Clear
7:16 PM 27.0 °F - 4.1 °F 38% 30.13 in 10.0 mi Calm Calm - N/A   Clear
7:36 PM 28.9 °F - 4.6 °F 36% 30.13 in 10.0 mi Calm Calm - N/A   Clear
7:56 PM 27.0 °F 23.0 °F 6.1 °F 41% 30.14 in 10.0 mi SW 3.5 mph - N/A   Clear
8:16 PM 24.3 °F 18.4 °F 6.6 °F 47% 30.14 in 10.0 mi SSW 4.6 mph - N/A   Clear
8:36 PM 24.8 °F - 6.3 °F 45% 30.13 in 10.0 mi Calm Calm - N/A   Clear
8:56 PM 21.4 °F - 6.6 °F 53% 30.13 in 10.0 mi Calm Calm - N/A   Clear
9:16 PM 21.4 °F 16.6 °F 6.4 °F 53% 30.14 in 10.0 mi SW 3.5 mph - N/A   Clear
9:36 PM 22.8 °F 16.7 °F 6.1 °F 49% 30.14 in 10.0 mi SSW 4.6 mph - N/A   Clear
9:56 PM 23.0 °F 15.8 °F 6.3 °F 49% 30.14 in 10.0 mi SSW 5.8 mph - N/A   Clear
10:16 PM 25.0 °F - 5.4 °F 43% 30.13 in 10.0 mi Calm Calm - N/A   Clear
10:36 PM 21.9 °F 14.5 °F 6.6 °F 52% 30.14 in 10.0 mi SSW 5.8 mph - N/A   Clear
10:56 PM 23.7 °F - 6.8 °F 49% 30.13 in 10.0 mi Calm Calm - N/A   Clear
11:16 PM 25.7 °F 18.0 °F 5.0 °F 41% 30.13 in 10.0 mi SSW 6.9 mph - N/A   Clear
11:36 PM 23.5 °F - 7.7 °F 51% 30.14 in 10.0 mi Calm Calm - N/A   Clear
11:56 PM 22.3 °F - 6.6 °F 51% 30.14 in 10.0 mi Calm Calm - N/A   Clear